Date,TemperatureHighF,TemperatureAvgF,TemperatureLowF,DewpointHighF,DewpointAvgF,DewpointLowF,HumidityHigh,HumidityAvg,HumidityLow,PressureMaxIn,PressureMinIn,WindSpeedMaxMPH,WindSpeedAvgMPH,GustSpeedMaxMPH,PrecipitationSumIn
2014-1-1,65.9,42.9,25.8,42.1,30.8,17.0,83,64,37,30.30,29.88,21,8,27,0.00
2014-1-2,38.4,28.4,20.0,19.9,16.4,12.7,76,62,43,30.55,30.30,20,5,24,0.00
2014-1-3,48.1,36.3,25.1,26.2,22.2,17.8,82,58,37,30.51,30.00,23,9,29,0.00
2014-1-4,67.2,48.3,34.9,44.4,34.8,23.0,87,62,36,30.00,29.71,28,11,29,0.00
2014-1-5,34.7,24.0,14.1,28.0,14.5,1.0,82,67,53,30.67,29.85,19,11,28,0.00
2014-1-6,27.8,19.1,11.4,6.5,2.6,-0.2,63,49,31,30.82,30.60,13,5,18,0.00
2014-1-7,46.4,32.2,20.3,17.5,12.6,6.0,65,46,27,30.60,30.29,16,7,24,0.00
2014-1-8,38.9,35.9,31.1,37.2,29.6,13.9,96,80,44,30.29,30.14,14,6,21,0.02
2014-1-9,38.3,34.2,31.4,38.0,33.4,30.0,98,97,96,30.27,30.06,7,2,10,0.01
2014-1-10,66.7,50.0,38.3,59.0,43.8,32.0,99,82,46,30.05,29.63,14,5,25,0.21
2014-1-11,64.0,50.0,36.0,32.5,27.2,23.0,70,45,21,30.10,29.83,13,3,20,0.00
2014-1-12,73.0,57.1,42.4,50.5,35.8,27.0,74,48,26,30.03,29.70,25,12,31,0.00
2014-1-13,59.1,51.1,42.9,50.0,27.0,17.0,73,41,22,30.06,29.76,14,6,20,0.00
2014-1-14,58.1,46.2,36.8,35.0,22.3,17.0,47,39,29,30.38,29.99,25,5,27,0.00
2014-1-15,55.1,41.8,31.1,27.3,23.1,16.7,66,49,30,30.42,30.07,12,4,15,0.00
2014-1-16,62.9,50.6,38.9,32.5,21.9,7.8,60,37,13,30.22,30.01,18,7,27,0.00
2014-1-17,50.6,44.4,36.7,17.8,14.2,9.0,42,30,21,30.39,30.18,17,5,22,0.00
2014-1-18,65.6,50.8,38.2,31.0,24.4,17.0,48,37,23,30.22,30.03,12,5,20,0.00
2014-1-19,64.9,48.7,33.5,28.6,25.7,22.8,65,43,22,30.30,30.02,12,4,18,0.00
2014-1-20,67.1,52.0,41.5,37.1,30.3,24.0,64,45,26,30.29,29.89,12,6,24,0.00
2014-1-21,47.6,36.8,28.6,25.0,12.5,5.0,54,37,27,30.50,30.20,19,4,24,0.00
2014-1-22,50.2,36.1,25.9,23.0,18.5,15.0,65,50,31,30.30,30.12,13,4,19,0.00
2014-1-23,38.1,25.1,19.3,20.0,1.5,-7.0,58,37,26,30.86,30.30,21,10,32,0.00
2014-1-24,41.9,29.8,12.4,9.7,3.8,-3.0,60,35,20,30.86,30.25,14,5,19,0.00
2014-1-27,30.3,29.6,29.3,0.3,-0.6,-1.3,27,27,26,30.37,30.34,12,10,17,0.00
2014-1-28,32.1,26.7,17.6,11.4,5.5,0.1,70,42,26,30.60,30.48,8,3,10,0.00
2014-1-29,45.6,38.2,25.7,15.1,12.0,8.3,54,35,22,30.47,30.17,13,8,18,0.00
2014-1-30,56.8,43.2,32.1,42.8,28.6,13.8,80,57,45,30.17,29.81,20,11,25,0.00
2014-1-31,67.4,51.9,39.2,51.5,43.8,34.5,96,76,45,29.86,29.77,14,6,22,0.00
2014-2-1,43.7,37.2,32.3,35.4,30.9,25.5,91,79,60,30.14,29.78,13,6,18,0.00
2014-2-2,32.5,28.0,24.1,27.0,23.8,19.8,93,85,76,30.35,30.12,13,8,20,0.00
2014-2-3,35.0,28.5,22.2,30.6,23.2,15.9,91,80,72,30.38,30.09,8,2,11,0.19
2014-2-4,35.2,33.6,32.1,34.2,31.3,30.2,96,91,83,30.12,29.95,7,3,9,0.14
2014-2-5,16.9,16.3,16.0,11.1,10.2,9.8,78,76,75,30.59,30.53,15,12,0,0.00
2014-2-6,20.3,19.8,19.2,12.4,11.6,11.0,71,70,69,30.56,30.54,5,4,0,0.00
2014-2-7,26.3,24.8,22.1,24.3,20.5,15.8,93,84,75,30.45,30.28,5,3,0,0.00
2014-2-9,34.6,33.9,33.3,33.8,33.0,32.3,97,97,96,30.19,30.15,9,6,0,0.02
2014-2-10,25.6,24.7,24.2,23.7,23.0,22.4,94,93,92,30.40,30.31,8,6,0,0.00
2014-2-11,24.6,23.7,22.8,19.4,18.6,17.6,81,80,80,30.45,30.43,7,6,0,0.00
2014-2-12,39.7,36.1,30.5,28.0,26.7,25.1,87,69,59,30.27,30.25,5,3,0,0.00
2014-2-20,66.8,54.8,44.2,56.0,30.2,18.0,71,40,26,30.12,29.64,23,9,29,0.00
2014-2-21,64.2,50.0,32.7,29.0,21.6,14.0,59,35,19,30.18,29.99,19,5,22,0.00
2014-2-22,71.7,58.2,45.0,47.0,37.7,27.0,68,48,33,30.01,29.80,19,7,23,0.00
2014-2-23,58.1,51.6,43.4,51.0,39.6,27.0,94,66,41,30.20,29.81,15,6,20,0.00
2014-2-24,45.9,41.8,35.5,39.0,31.4,24.0,79,67,52,30.24,30.09,12,4,18,0.00
2014-2-25,49.6,44.5,38.2,39.0,29.8,20.0,83,58,42,30.28,30.12,19,7,24,0.00
2014-2-26,37.9,30.8,21.6,21.0,13.7,10.0,64,50,37,30.42,30.21,21,6,26,0.00
2014-2-27,53.5,39.5,24.4,28.0,19.4,13.0,65,47,28,30.22,29.88,13,3,18,0.00
2014-2-28,70.6,52.5,41.7,46.0,38.4,28.0,92,61,37,29.90,29.70,18,7,24,0.00
2014-3-1,62.3,49.5,35.5,54.0,46.8,31.0,98,91,71,30.07,29.90,17,5,22,0.00
2014-3-2,34.1,19.3,14.1,30.0,15.9,9.0,92,86,79,30.47,30.08,21,11,30,0.00
2014-3-3,28.2,19.7,9.0,17.2,11.1,4.0,81,70,59,30.59,30.39,21,6,25,0.00
2014-3-4,47.2,32.8,21.1,30.0,22.6,14.0,82,67,48,30.39,30.07,10,3,15,0.01
2014-3-5,52.6,40.4,30.7,37.0,31.7,28.0,91,73,49,30.27,30.06,9,4,17,0.13
2014-3-6,51.0,38.6,36.3,38.0,35.1,34.0,91,87,58,30.30,30.11,11,5,15,0.00
2014-3-7,63.3,50.8,37.1,42.0,38.6,35.0,91,66,43,30.02,29.82,17,10,29,0.00
2014-3-8,50.3,39.8,34.8,45.0,35.2,31.0,87,84,76,30.36,29.91,14,8,18,0.00
2014-3-9,55.3,44.0,35.7,40.0,34.1,31.0,84,70,54,30.38,30.20,7,3,12,0.00
2014-3-10,76.0,63.9,39.6,46.0,38.5,33.0,91,44,23,30.16,29.82,16,6,20,0.00
2014-3-11,61.3,58.6,55.5,54.0,52.0,46.0,88,79,63,29.81,29.68,10,6,17,0.00
2014-3-12,57.7,52.4,43.3,28.0,22.6,20.0,56,32,23,30.31,30.24,20,7,32,0.01
2014-3-13,65.7,53.1,36.9,29.0,23.5,21.0,54,34,19,30.32,30.04,14,5,22,0.00
2014-3-14,71.3,58.5,47.0,50.0,40.8,30.0,72,53,41,30.04,29.94,21,7,22,0.00
2014-3-15,66.4,57.6,52.1,60.0,53.8,50.0,95,87,74,29.99,29.68,20,5,30,1.61
2014-3-16,53.8,43.2,38.0,52.0,37.5,30.0,95,80,64,30.13,29.78,25,11,37,0.00
2014-3-17,58.0,44.8,32.1,33.0,29.2,26.0,79,57,35,30.14,29.68,14,4,20,0.00
2014-3-18,80.2,61.7,48.5,37.0,33.2,26.0,56,38,17,29.94,29.55,22,11,30,0.00
2014-3-19,60.9,50.5,40.0,34.0,29.8,24.0,71,48,25,30.24,29.95,17,6,31,0.00
2014-3-20,69.8,56.2,41.3,34.0,29.7,27.0,59,39,22,30.25,29.98,15,4,21,0.00
2014-3-21,77.4,64.6,52.2,56.0,45.7,34.0,62,51,37,29.99,29.78,21,7,31,0.00
2014-3-22,65.5,54.0,50.6,41.0,35.9,32.0,67,52,33,30.19,29.95,20,9,32,0.00
2014-3-23,52.4,46.1,37.5,34.0,23.6,17.0,56,42,32,30.47,30.19,21,8,29,0.00
2014-3-24,64.7,50.6,36.9,37.0,31.0,23.0,67,49,31,30.31,30.07,21,4,30,0.00
2014-3-25,58.3,47.6,36.1,31.0,27.8,26.0,70,48,31,30.44,30.24,15,5,22,0.00
2014-3-26,57.1,46.4,41.4,51.0,37.2,29.0,89,71,52,30.24,29.85,27,7,33,0.30
2014-3-27,80.8,66.3,56.7,63.0,51.5,41.0,92,65,24,29.84,29.64,25,11,33,0.00
2014-3-28,65.0,57.8,50.7,55.0,44.1,39.0,71,61,53,30.11,29.73,16,8,22,0.00
2014-3-29,71.4,56.9,41.6,41.0,35.3,29.0,81,50,22,30.32,30.11,11,4,14,0.00
2014-3-30,75.5,62.1,46.7,45.0,37.9,33.0,66,43,26,30.23,29.91,21,9,30,0.00
2014-3-31,79.2,65.7,55.5,59.0,53.6,45.0,85,66,45,29.91,29.77,21,10,24,0.01
2014-4-1,79.3,67.4,57.6,64.0,59.5,56.0,96,77,55,29.96,29.80,23,6,24,0.00
2014-4-2,80.9,73.5,68.5,68.0,65.6,62.0,89,77,59,29.80,29.63,21,11,31,0.00
2014-4-3,88.1,75.3,54.0,69.0,60.6,38.0,86,66,17,29.91,29.57,21,10,39,0.00
2014-4-4,64.3,53.0,41.5,38.0,30.3,25.0,76,46,23,30.19,29.92,23,7,29,0.00
2014-4-5,57.3,50.9,45.3,44.0,33.8,25.0,84,54,34,30.17,29.98,11,4,16,0.04
2014-4-6,48.9,47.2,43.8,47.0,44.1,40.0,95,89,74,30.04,29.77,15,4,19,0.53
2014-4-7,66.8,53.5,46.3,49.0,46.0,42.0,94,78,41,30.01,29.83,15,3,28,0.07
2014-4-8,67.8,56.7,46.4,44.0,36.2,30.0,79,51,25,30.17,30.01,21,8,32,0.00
2014-4-9,77.5,63.1,46.8,49.0,40.5,33.0,68,45,30,30.22,29.95,21,7,25,0.00
2014-4-10,84.1,71.5,60.3,56.0,52.1,47.0,71,52,33,29.95,29.78,23,12,30,0.00
2014-4-11,77.5,69.0,58.5,62.0,58.3,54.0,85,69,57,29.98,29.85,15,7,21,0.00
2014-4-12,79.6,71.6,62.9,63.0,60.9,59.0,87,70,54,29.88,29.68,26,13,31,0.00
2014-4-13,77.8,68.4,50.5,65.0,61.1,45.0,92,78,57,29.77,29.45,31,14,38,0.06
2014-4-14,50.1,44.7,40.4,44.0,31.8,23.0,80,62,38,30.30,29.79,24,12,33,0.00
2014-4-15,62.2,48.8,34.0,30.0,24.1,20.0,65,41,21,30.34,30.11,11,3,19,0.00
2014-4-16,64.7,54.8,45.2,41.0,34.5,28.0,63,48,32,30.12,29.93,24,10,30,0.00
2014-4-17,62.1,55.8,46.9,52.0,46.4,39.0,82,71,62,30.23,30.06,9,4,14,0.00
2014-4-18,73.5,62.1,49.6,48.0,45.7,43.0,79,58,37,30.28,30.12,10,3,15,0.00
2014-4-19,75.5,65.3,53.4,54.0,50.8,46.0,80,61,44,30.20,30.07,15,5,22,0.00
2014-4-20,74.9,63.0,59.4,60.0,56.3,53.0,94,80,52,30.14,30.02,11,4,17,0.33
2014-4-21,75.7,66.9,59.1,65.0,61.0,57.0,96,82,63,30.04,29.94,15,5,23,0.61
2014-4-22,79.2,69.3,59.0,61.0,53.2,43.0,94,62,28,30.09,29.93,10,3,15,0.00
2014-4-23,83.0,71.0,56.8,64.0,56.4,48.0,81,61,43,29.94,29.64,20,7,31,0.12
2014-4-24,77.4,69.7,63.3,64.0,54.2,39.0,92,62,31,29.95,29.67,22,9,27,0.10
2014-4-25,78.8,66.9,53.4,47.0,41.6,37.0,64,42,26,30.05,29.85,18,6,20,0.00
2014-4-26,83.2,70.5,60.8,65.0,53.9,43.0,72,56,44,29.85,29.61,22,10,31,0.00
2014-4-29,66.3,59.7,53.8,39.0,34.9,-99.9,58,42,32,29.96,29.81,17,-10,28,0.00
2014-4-30,63.7,55.1,45.8,39.0,34.2,28.0,69,48,28,30.17,29.96,17,6,24,0.00
2014-5-1,70.0,58.2,43.1,39.0,33.1,29.0,66,42,25,30.19,30.02,12,3,21,0.00
2014-5-2,76.8,64.0,47.6,43.0,35.7,29.0,74,40,18,30.05,29.92,7,2,16,0.00
2014-5-3,86.1,70.1,52.2,47.0,40.5,36.0,73,38,18,30.03,29.94,12,4,16,0.00
2014-5-4,93.1,77.0,60.2,48.0,44.3,39.0,64,35,15,29.96,29.82,20,8,28,0.00
2014-5-5,89.3,76.4,63.8,60.0,52.3,44.0,60,44,34,29.85,29.68,24,11,28,0.00
2014-5-6,85.4,75.9,66.3,65.0,61.6,57.0,74,62,49,29.73,29.61,24,12,27,0.00
2014-5-7,81.0,74.0,67.8,68.0,64.8,62.0,84,73,61,29.79,29.67,24,12,30,0.00
2014-5-8,75.5,68.5,63.0,67.0,63.8,61.0,95,85,66,29.85,29.67,22,8,34,0.62
2014-5-9,85.8,73.8,63.0,65.0,56.6,48.0,96,61,28,29.90,29.77,12,3,18,0.00
2014-5-10,85.5,74.0,63.4,69.0,63.3,56.0,92,71,48,29.87,29.71,20,9,26,0.00
2014-5-11,84.0,77.0,71.9,70.0,67.6,66.0,87,73,56,29.79,29.63,24,13,33,0.00
2014-5-12,81.0,67.8,56.2,72.0,63.2,52.0,94,85,75,30.10,29.65,22,9,33,0.44
2014-5-13,66.0,57.4,49.9,51.0,45.3,42.0,81,65,49,30.27,30.09,16,7,22,0.01
2014-5-14,69.3,59.3,51.1,50.0,43.4,35.0,88,60,29,30.29,30.17,17,4,19,0.06
2014-5-15,77.1,62.8,48.9,47.0,42.8,36.0,83,53,25,30.23,30.09,13,4,17,0.00
2014-5-16,76.9,64.9,50.6,56.0,50.8,47.0,88,62,43,30.16,29.86,11,5,22,0.00
2014-5-17,70.7,63.5,54.1,58.0,53.0,47.0,85,69,57,30.06,29.85,18,6,21,0.00
2014-5-18,79.8,67.5,56.9,63.0,58.9,54.0,93,76,51,30.10,29.93,17,7,22,0.00
2014-5-19,83.0,73.6,64.3,63.0,61.1,59.0,82,66,49,29.98,29.83,29,12,34,0.00
2014-5-20,85.6,75.6,67.2,64.0,62.4,60.0,84,65,44,29.96,29.87,25,12,30,0.00
2014-5-21,84.8,76.9,67.9,66.0,64.2,63.0,85,66,50,30.04,29.89,19,10,25,0.00
2014-5-22,84.3,75.7,67.4,67.0,64.5,62.0,84,69,49,30.08,29.95,16,7,21,0.00
2014-5-23,81.4,74.8,68.5,67.0,64.7,61.0,87,72,52,30.06,29.97,14,6,21,0.00
2014-5-24,83.1,75.4,68.7,68.0,66.2,64.0,88,74,56,30.03,29.92,12,5,18,0.00
2014-5-25,83.4,75.1,68.4,69.0,65.8,61.0,89,74,48,29.99,29.89,18,5,24,0.00
2014-5-26,80.2,73.3,68.5,69.0,66.0,64.0,89,78,60,30.02,29.90,13,4,21,0.00
2014-5-27,77.9,69.5,65.0,66.0,64.1,62.0,96,83,61,29.94,29.83,13,3,16,0.09
2014-5-28,81.1,71.0,62.8,66.0,63.6,61.0,97,79,55,29.96,29.87,13,3,15,0.00
2014-5-29,86.8,76.7,65.7,68.0,65.3,63.0,92,70,47,29.92,29.80,11,4,16,0.00
2014-5-30,83.4,73.2,66.7,70.0,67.2,65.0,95,82,56,29.92,29.84,18,5,18,0.02
2014-5-31,84.5,74.4,67.7,70.0,67.6,66.0,97,81,56,30.00,29.88,10,4,13,0.00
2014-6-1,87.4,77.6,70.1,71.0,69.3,67.0,96,77,53,29.97,29.78,15,6,21,0.00
2014-6-2,88.3,80.2,73.9,71.0,68.8,66.0,87,70,48,30.00,29.77,18,7,28,0.03
2014-6-3,89.6,79.8,71.7,73.0,70.4,69.0,91,74,51,30.00,29.82,19,6,23,0.00
2014-6-4,84.5,78.6,73.9,72.0,70.2,69.0,87,75,66,29.82,29.75,13,8,18,0.00
2014-6-5,86.4,83.4,80.5,72.0,72.0,72.0,74,68,62,29.78,29.78,8,6,16,0.00
2014-6-6,87.4,81.3,68.4,74.0,70.6,66.0,95,71,58,29.92,29.74,16,8,26,0.68
2014-6-7,94.6,82.5,71.7,75.0,70.4,65.0,88,69,41,29.91,29.79,17,6,26,0.07
2014-6-8,81.1,72.4,64.5,69.0,67.0,63.0,95,84,64,29.96,29.79,13,4,25,1.66
2014-6-9,81.2,71.0,62.2,69.0,61.5,54.0,95,74,44,29.82,29.69,13,3,23,0.65
2014-6-10,80.9,72.5,63.2,63.0,60.6,59.0,87,68,51,29.85,29.70,14,3,19,0.00
2014-6-11,89.5,78.2,64.7,68.0,63.4,60.0,85,62,44,29.89,29.72,14,4,18,0.00
2014-6-12,83.2,75.4,66.7,70.0,67.0,64.0,92,76,61,29.96,29.70,20,5,35,0.27
2014-6-13,84.6,75.8,66.7,67.0,64.2,62.0,87,69,48,30.04,29.88,9,4,16,0.00
2014-6-14,87.0,79.2,72.0,74.0,69.9,67.0,86,74,57,29.90,29.73,19,8,26,0.00
2014-6-15,88.7,81.4,74.9,72.0,70.6,68.0,82,70,55,29.90,29.72,18,9,23,0.00
2014-6-16,90.5,82.2,74.1,73.0,70.7,69.0,89,69,51,29.96,29.84,21,10,28,0.00
2014-6-17,90.7,82.9,75.8,73.0,71.3,70.0,85,69,51,29.94,29.82,22,10,31,0.00
2014-6-18,90.0,82.1,75.6,75.0,70.6,68.0,81,69,51,29.93,29.84,22,9,26,0.00
2014-6-19,84.4,78.5,75.5,74.0,71.6,70.0,88,80,67,30.04,29.90,17,6,21,0.03
2014-6-20,88.8,80.0,70.5,73.0,68.9,66.0,92,71,47,30.08,29.96,11,4,22,0.03
2014-6-21,87.9,81.3,75.4,72.0,69.3,66.0,82,68,53,30.01,29.86,13,4,18,0.00
2014-6-22,83.6,77.8,74.2,72.0,69.2,65.0,88,75,57,29.93,29.79,21,8,25,0.00
2014-6-23,85.1,75.7,66.4,71.0,68.0,65.0,95,78,56,29.97,29.78,12,3,22,1.22
2014-6-24,87.4,77.6,68.8,70.0,67.4,64.0,94,73,46,30.04,29.94,8,2,17,0.00
2014-6-25,83.9,75.6,69.4,73.0,68.6,65.0,92,79,58,30.05,29.93,13,4,33,0.00
2014-6-26,86.8,77.7,71.7,72.0,70.5,70.0,94,80,60,29.99,29.81,14,7,22,0.00
2014-6-27,88.2,79.2,71.3,73.0,70.7,69.0,91,76,59,29.86,29.73,24,10,30,0.00
2014-6-28,86.9,80.6,76.2,74.0,72.7,71.0,87,77,61,29.87,29.77,27,9,35,0.00
2014-6-29,92.1,84.2,76.9,75.0,73.0,71.0,91,71,53,29.95,29.84,25,10,28,0.00
2014-6-30,94.3,84.8,76.2,73.0,69.7,66.0,86,63,39,29.92,29.75,22,11,31,0.00
2014-7-1,92.2,81.8,70.1,75.0,71.5,67.0,89,72,51,29.98,29.77,17,4,23,0.70
2014-7-2,82.8,74.7,66.9,73.0,69.1,65.0,95,83,67,30.11,29.96,9,3,18,0.59
2014-7-3,80.6,74.6,68.5,66.0,63.6,61.0,82,69,57,30.21,30.08,8,2,13,0.00
2014-7-4,87.8,78.2,67.4,72.0,68.0,62.0,84,71,59,30.22,30.10,11,4,14,0.00
2014-7-5,88.9,80.4,71.6,73.0,71.1,69.0,93,74,54,30.16,30.01,13,6,18,0.00
2014-7-6,93.2,82.9,71.5,72.0,69.7,67.0,90,66,45,30.03,29.89,13,6,16,0.00
2014-7-7,97.7,84.7,73.8,73.0,69.2,65.0,86,62,37,29.95,29.84,12,5,18,0.00
2014-7-8,96.7,86.2,74.7,71.0,68.3,66.0,76,57,38,29.96,29.85,10,4,17,0.00
2014-7-9,88.9,81.0,73.9,73.0,69.8,68.0,84,69,52,30.07,29.92,14,5,22,0.00
2014-7-10,96.3,85.0,74.7,73.0,67.4,59.0,89,59,30,30.00,29.89,20,5,20,0.00
2014-7-11,94.1,84.8,75.5,68.0,64.6,58.0,75,53,31,30.08,29.99,18,7,24,0.00
2014-7-12,97.6,85.3,73.7,67.0,61.0,47.0,76,48,18,30.13,30.00,13,5,20,0.00
2014-7-13,99.4,87.4,74.2,70.0,65.4,61.0,73,50,30,30.06,29.91,13,4,14,0.00
2014-7-14,93.1,84.1,78.4,74.0,69.1,64.0,76,61,47,29.97,29.87,9,2,11,0.00
2014-7-15,83.9,77.6,70.9,74.0,58.6,52.0,82,54,34,30.09,29.96,16,6,22,0.00
2014-7-16,77.5,70.5,61.9,63.0,58.6,55.0,91,67,54,30.05,29.90,12,5,19,0.19
2014-7-17,66.3,64.3,61.0,65.0,62.6,58.0,96,94,90,30.02,29.91,15,6,18,0.97
2014-7-18,71.5,66.2,62.1,64.0,62.6,61.0,96,88,76,30.06,29.99,9,3,13,0.00
2014-7-19,75.7,69.8,65.2,65.0,64.1,63.0,95,82,67,30.06,29.98,7,2,11,0.00
2014-7-20,87.3,75.6,65.2,74.0,68.8,64.0,95,80,63,30.04,29.90,12,5,16,0.00
2014-7-21,92.4,81.0,70.5,78.0,73.2,69.0,94,78,57,30.03,29.94,10,4,15,0.00
2014-7-22,93.1,83.1,73.8,77.0,74.1,72.0,93,75,55,30.07,29.99,8,3,12,0.00
2014-7-23,94.3,83.5,75.0,77.0,73.5,69.0,89,73,53,30.10,29.98,14,2,17,0.00
2014-7-24,92.4,86.0,76.1,72.0,70.0,67.0,85,60,44,30.06,29.92,9,3,12,0.00
2014-7-25,97.3,84.3,72.4,73.0,70.4,66.0,94,66,38,29.98,29.86,15,6,21,0.00
2014-7-26,98.4,87.6,75.6,73.0,69.9,64.0,84,58,32,29.95,29.85,17,6,23,0.00
2014-7-27,103.8,89.3,78.7,77.0,72.1,68.0,76,59,32,30.00,29.91,12,5,16,0.00
2014-7-28,85.0,80.0,75.3,76.0,69.2,64.0,92,71,53,30.18,30.00,11,4,18,0.04
2014-7-29,90.6,79.6,73.1,68.0,65.3,61.0,79,63,39,30.15,30.02,6,1,9,0.00
2014-7-30,78.6,73.8,68.8,72.0,69.0,66.0,96,85,72,30.07,29.88,15,5,21,2.54
2014-7-31,74.1,69.2,65.6,68.0,66.3,64.0,96,90,78,30.05,29.94,14,5,17,0.03
2014-8-1,78.5,72.5,66.2,68.0,65.9,65.0,94,80,65,30.08,30.01,9,3,13,0.00
2014-8-2,85.3,75.9,66.4,69.0,66.7,65.0,96,75,52,30.13,30.03,7,2,14,0.00
2014-8-3,87.2,79.1,69.4,70.0,66.8,64.0,89,68,46,30.12,30.01,11,2,13,0.00
2014-8-4,88.7,79.9,71.3,71.0,66.7,63.0,86,66,44,30.09,29.99,8,2,12,0.00
2014-8-5,90.5,80.4,69.6,73.0,68.0,64.0,85,67,46,30.09,29.97,8,2,12,0.00
2014-8-6,93.7,83.9,75.2,74.0,72.1,70.0,90,69,47,30.00,29.84,16,6,17,0.00
2014-8-7,92.2,82.3,74.3,76.0,72.5,69.0,92,73,50,29.95,29.77,17,5,19,0.48
2014-8-8,92.2,83.6,77.1,76.0,72.9,69.0,88,71,55,29.91,29.82,9,2,20,0.00
2014-8-9,95.8,83.2,74.3,74.0,72.3,70.0,90,71,48,29.95,29.86,8,4,17,0.02
2014-8-10,94.3,81.5,73.4,75.0,72.0,70.0,94,75,51,30.00,29.90,8,2,17,0.19
2014-8-11,91.0,83.0,74.0,71.0,69.1,65.0,86,64,47,30.08,29.97,16,4,25,0.00
2014-8-12,87.0,79.0,69.5,69.0,61.8,58.0,76,57,40,30.11,30.00,12,4,16,0.00
2014-8-13,88.7,78.8,69.3,65.0,61.2,58.0,78,57,36,30.11,30.00,7,2,10,0.00
2014-8-14,90.2,80.1,69.6,68.0,64.8,61.0,76,61,43,30.06,29.93,9,4,17,0.00
2014-8-15,93.5,82.4,71.7,71.0,68.0,65.0,79,63,44,29.99,29.83,13,6,18,0.00
2014-8-16,90.4,83.3,76.1,73.0,70.6,68.0,83,66,48,29.90,29.82,12,5,17,0.07
2014-8-17,87.5,80.2,74.7,75.0,71.7,70.0,88,76,62,29.95,29.84,17,6,22,0.02
2014-8-18,96.1,83.1,71.5,74.0,71.4,70.0,96,71,43,29.95,29.79,13,4,17,0.00
2014-8-19,92.3,83.1,75.1,72.0,70.3,68.0,84,67,48,29.91,29.78,15,4,19,0.00
2014-8-20,93.1,83.9,75.2,73.0,70.2,67.0,87,65,43,29.93,29.84,18,8,24,0.02
2014-8-21,93.1,85.3,77.4,75.0,72.2,68.0,83,66,52,29.98,29.88,22,8,25,0.00
2014-8-22,97.4,87.0,78.1,74.0,68.6,62.0,79,57,32,29.99,29.87,18,7,21,0.00
2014-8-23,96.7,85.9,75.6,69.0,64.8,59.0,78,52,29,29.95,29.83,18,6,22,0.00
2014-8-24,96.3,86.1,75.5,71.0,68.4,65.0,80,57,37,29.92,29.82,11,5,19,0.00
2014-8-25,98.3,87.0,75.8,72.0,69.0,65.0,80,57,35,29.95,29.84,9,4,14,0.00
2014-8-26,94.4,85.5,75.3,74.0,70.6,69.0,84,62,44,30.04,29.92,10,3,18,0.00
2014-8-27,93.7,83.4,73.6,74.0,69.7,67.0,88,65,44,30.06,29.93,13,3,16,0.00
2014-8-28,91.5,80.4,72.3,70.0,67.0,65.0,79,65,45,29.98,29.83,14,5,18,0.00
2014-8-29,84.0,79.7,69.4,72.0,69.6,68.0,96,72,60,29.92,29.84,7,2,11,0.70
2014-8-30,93.5,82.3,73.1,74.0,70.5,66.0,93,70,42,29.94,29.83,10,3,11,0.00
2014-8-31,93.2,82.9,72.9,75.0,71.0,67.0,89,69,43,29.93,29.80,18,7,22,0.00
2014-9-1,92.9,84.3,75.9,75.0,72.1,70.0,84,68,51,29.88,29.77,26,11,27,0.00
2014-9-2,90.9,83.7,77.6,73.0,71.4,70.0,78,67,54,29.97,29.80,20,8,24,0.00
2014-9-3,93.1,84.0,74.2,73.0,71.0,68.0,92,67,46,29.95,29.86,18,7,25,0.00
2014-9-4,93.3,84.9,76.0,71.0,69.1,67.0,78,60,44,30.00,29.90,17,7,22,0.00
2014-9-5,93.2,84.6,74.9,72.0,69.0,65.0,83,61,40,30.07,29.94,9,3,16,0.00
2014-9-6,82.3,71.8,66.3,69.0,66.2,64.0,94,83,61,30.13,30.00,14,7,23,0.43
2014-9-7,78.3,71.1,65.8,71.0,66.9,63.0,93,86,75,30.14,30.00,9,3,11,0.00
2014-9-8,89.7,78.4,67.8,73.0,70.2,67.0,97,78,53,30.04,29.89,11,3,14,0.00
2014-9-9,94.3,84.7,75.3,72.0,70.1,68.0,84,63,44,29.93,29.73,20,8,30,0.00
2014-9-10,98.8,84.1,74.3,75.0,71.0,68.0,89,66,42,29.84,29.68,22,8,24,0.32
2014-9-11,74.0,69.7,67.8,70.0,65.7,63.0,94,87,79,30.06,29.84,15,7,19,0.10
2014-9-12,67.8,60.5,55.6,64.0,57.8,52.0,96,90,84,30.31,30.04,19,8,26,1.04
2014-9-13,66.7,59.0,53.3,57.0,51.8,48.0,88,77,65,30.34,30.21,15,5,22,0.01
2014-9-14,72.8,65.0,58.5,65.0,60.5,56.0,94,85,72,30.26,30.12,8,2,10,0.00
2014-9-15,81.5,73.2,66.9,71.0,68.1,65.0,94,84,69,30.15,30.08,6,2,9,0.03
2014-9-16,86.5,78.3,70.6,73.0,70.6,69.0,95,79,58,30.12,29.96,8,2,11,0.00
2014-9-17,89.6,79.7,71.6,74.0,71.2,69.0,93,77,54,29.99,29.81,8,2,11,0.00
2014-9-18,81.1,75.0,70.6,71.0,68.8,65.0,89,81,65,29.97,29.84,16,3,25,0.00
2014-9-19,85.0,75.7,67.0,71.0,69.1,65.0,96,81,59,29.98,29.89,11,3,14,0.00
2014-9-20,86.1,77.8,69.2,72.0,69.5,67.0,95,77,57,30.02,29.92,13,4,16,0.00
2014-9-21,92.4,78.7,69.6,71.0,67.5,62.0,88,70,43,30.12,29.99,10,2,15,0.00
2014-9-22,81.3,72.1,63.0,60.0,54.1,52.0,71,55,36,30.24,30.12,9,4,17,0.00
2014-9-23,79.3,68.1,57.7,57.0,54.5,52.0,87,64,42,30.22,30.08,10,3,13,0.03
2014-9-24,81.3,69.5,57.8,55.0,52.3,49.0,84,57,32,30.20,30.10,9,3,14,0.00
2014-9-25,82.4,71.4,58.4,61.0,56.3,51.0,85,61,39,30.21,30.10,10,2,14,0.00
2014-9-26,82.7,72.5,61.1,63.0,58.7,57.0,87,64,43,30.15,30.04,9,2,13,0.00
2014-9-27,83.0,72.6,61.0,64.0,60.6,58.0,88,67,46,30.10,29.99,12,3,15,0.00
2014-9-28,84.4,74.0,63.1,66.0,61.4,58.0,90,67,42,30.09,29.99,7,2,12,0.00
2014-9-29,85.0,75.2,65.2,64.0,61.5,56.0,86,65,38,30.05,29.90,8,2,15,0.00
2014-9-30,87.5,76.2,66.7,69.0,65.1,62.0,84,70,45,29.91,29.72,12,5,19,0.00
2014-10-1,88.6,79.7,71.8,72.0,69.2,68.0,89,72,53,29.78,29.68,17,7,22,0.00
2014-10-2,89.1,78.4,65.0,74.0,65.7,53.0,84,66,36,29.94,29.65,20,7,26,0.00
2014-10-3,71.7,63.4,55.0,55.0,48.6,39.0,86,61,38,30.25,29.94,16,4,21,0.00
2014-10-4,78.1,62.1,47.3,43.0,39.1,37.0,73,46,23,30.25,29.94,12,3,14,0.00
2014-10-5,82.4,69.7,57.6,62.0,52.3,40.0,76,55,42,29.93,29.78,12,4,16,0.00
2014-10-6,82.1,72.2,63.1,67.0,63.9,59.0,94,76,54,29.89,29.77,15,5,25,1.68
2014-10-7,91.7,78.5,66.5,70.0,66.5,63.0,92,69,43,29.88,29.79,12,6,17,0.00
2014-10-8,85.1,77.5,71.5,72.0,68.9,67.0,89,75,61,29.99,29.88,14,6,20,0.00
2014-10-9,87.7,78.3,71.6,71.0,69.4,67.0,93,76,53,29.96,29.81,16,8,22,0.00
2014-10-10,89.8,74.9,58.2,72.0,66.6,57.0,94,77,51,30.02,29.79,21,8,25,1.05
2014-10-11,58.4,54.4,51.8,57.0,51.6,50.0,94,90,84,30.11,29.93,12,4,19,0.04
2014-10-12,73.1,62.2,52.6,68.0,56.1,50.0,93,81,61,30.05,29.58,27,7,43,0.00
2014-10-13,70.1,59.4,56.2,67.0,54.2,46.0,96,84,65,29.94,29.53,24,5,31,1.03
2014-10-14,70.7,56.9,50.1,46.0,43.2,40.0,75,63,34,30.10,29.94,13,4,23,0.00
2014-10-17,80.7,73.3,64.7,57.0,51.1,49.0,58,47,37,30.02,29.90,9,5,17,0.00
2014-10-18,74.4,65.3,58.2,50.0,49.2,47.0,72,57,39,30.15,30.01,11,5,16,0.00
2014-10-19,70.8,61.4,52.6,56.0,52.1,48.0,88,72,56,30.20,30.06,14,4,16,0.00
2014-10-20,82.1,68.0,56.2,64.0,58.7,52.0,87,73,53,30.10,29.99,8,3,10,0.00
2014-10-21,79.9,70.1,60.5,63.0,60.7,58.0,92,74,50,30.10,30.00,10,2,13,0.00
2014-10-22,77.6,68.5,60.5,64.0,60.5,58.0,93,77,57,30.16,30.05,10,4,17,0.00
2014-10-23,76.5,66.5,58.9,61.0,58.4,56.0,92,76,58,30.15,30.04,12,5,14,0.03
2014-10-24,82.5,68.7,57.5,65.0,60.4,55.0,91,76,55,30.15,30.03,10,4,16,0.00
2014-10-25,89.4,73.9,61.6,64.0,61.8,59.0,93,69,40,30.11,30.00,11,4,13,0.00
2014-10-26,85.9,74.3,63.1,62.0,59.2,56.0,86,62,36,30.00,29.79,20,8,27,0.00
2014-10-27,80.6,72.7,64.4,64.0,59.7,56.0,79,64,55,29.83,29.71,22,10,26,0.00
2014-10-28,74.5,67.2,58.5,60.0,47.8,41.0,73,52,33,30.15,29.82,17,7,25,0.00
2014-10-29,73.5,61.6,49.6,51.0,41.1,34.0,73,50,25,30.25,30.14,8,3,13,0.00
2014-10-30,77.1,63.2,52.2,57.0,46.7,41.0,79,57,35,30.20,30.07,10,3,17,0.00
2014-10-31,61.7,54.8,43.8,42.0,38.0,28.0,69,54,37,30.42,30.20,13,6,24,0.00
2014-11-1,57.9,46.2,34.8,31.0,28.2,26.0,70,51,32,30.48,30.30,12,4,17,0.00
2014-11-2,63.1,53.5,45.5,47.0,38.9,30.0,66,58,48,30.33,30.17,18,9,27,0.00
2014-11-3,70.6,62.4,52.3,59.0,53.6,42.0,86,73,63,30.19,30.05,15,8,25,0.00
2014-11-4,68.1,54.8,48.7,60.0,52.1,47.0,95,91,74,30.28,30.02,16,5,25,1.45
2014-11-5,59.4,52.1,47.7,49.0,46.0,43.0,92,80,58,30.30,30.21,7,2,9,0.00
2014-11-6,69.0,56.1,44.5,43.0,38.3,34.0,85,55,28,30.41,30.28,14,3,17,0.00
2014-11-7,65.8,54.2,43.2,43.0,37.8,31.0,83,56,36,30.34,30.02,15,5,20,0.00
2014-11-8,65.6,56.6,46.0,46.0,39.3,33.0,78,55,33,30.20,30.01,15,5,25,0.00
2014-11-9,72.1,55.5,40.4,46.0,40.5,34.0,81,59,38,30.17,29.79,20,6,24,0.00
2014-11-10,78.7,65.3,49.7,55.0,49.7,37.0,72,58,40,29.78,29.51,25,12,32,0.00
2014-11-11,47.3,38.5,32.9,35.0,23.9,16.0,68,57,44,30.36,29.75,26,10,36,0.00
2014-11-12,33.1,29.6,25.4,16.0,13.2,7.0,66,51,39,30.61,30.36,19,9,24,0.00
2014-11-13,35.3,29.5,26.5,14.0,8.2,5.0,57,41,30,30.70,30.54,16,6,23,0.00
2014-11-14,39.2,31.6,25.1,20.0,15.9,13.0,67,53,39,30.55,30.35,8,2,9,0.00
2014-11-15,45.5,38.8,31.6,38.0,28.4,19.0,94,68,52,30.34,30.06,16,7,26,0.00
2014-11-16,37.4,32.1,24.5,36.0,28.1,19.0,95,85,75,30.35,30.09,20,7,22,0.00
2014-11-17,37.5,29.1,20.7,20.0,17.1,15.0,89,63,41,30.52,30.32,16,4,21,0.00
2014-11-18,54.6,38.9,24.8,24.0,19.9,17.0,80,50,25,30.51,30.26,12,4,18,0.00
2014-11-19,62.3,47.0,33.0,33.0,27.9,21.0,66,49,32,30.25,30.15,7,3,18,0.00
2014-11-20,67.3,51.1,36.5,51.0,39.7,31.0,86,67,42,30.17,30.00,12,3,19,0.00
2014-11-21,65.8,60.8,54.7,60.0,57.2,51.0,95,88,77,30.12,30.02,15,6,19,0.00
2014-11-22,61.4,57.3,55.3,60.0,56.4,55.0,97,97,95,30.08,29.69,14,6,21,2.18
2014-11-23,70.4,57.0,45.1,57.0,48.2,38.0,97,76,36,29.82,29.34,26,8,32,0.00
2014-11-24,59.1,48.7,38.6,38.0,28.2,19.0,79,50,21,30.19,29.82,14,3,19,0.00
2014-11-25,58.0,47.1,36.8,33.0,27.3,23.0,70,48,27,30.35,30.07,7,2,10,0.00
2014-11-26,59.1,48.7,40.6,36.0,31.3,27.0,66,52,40,30.46,30.01,20,6,24,0.00
2014-11-27,54.2,44.0,35.6,30.0,25.7,21.0,67,51,28,30.60,30.36,13,4,21,0.00
2014-11-28,66.3,52.9,38.5,50.0,39.9,27.0,74,62,46,30.36,29.91,22,8,28,0.00
2014-11-29,76.5,62.7,49.3,57.0,48.4,45.0,85,63,33,29.91,29.78,23,10,30,0.00
2014-11-30,76.6,62.3,37.3,60.0,51.6,26.0,91,70,48,30.22,29.83,20,9,25,0.00
2014-12-1,36.7,30.2,27.6,25.0,17.8,14.0,72,60,53,30.55,30.23,19,8,25,0.00
2014-12-2,42.7,34.1,26.2,31.0,22.6,18.0,77,63,50,30.53,30.20,10,4,14,0.00
2014-12-3,47.4,45.3,42.7,47.0,42.7,31.0,97,90,64,30.27,30.18,9,3,12,0.01
2014-12-4,61.1,55.0,47.6,59.0,53.9,47.0,98,96,91,30.20,30.05,10,4,15,0.01
2014-12-5,68.5,60.2,51.4,63.0,56.9,48.0,98,89,72,30.25,29.98,12,6,18,0.11
2014-12-6,58.2,51.0,44.9,50.0,47.0,42.0,91,86,72,30.48,30.27,12,6,18,0.00
2014-12-7,47.2,45.3,43.3,46.0,43.9,41.0,97,95,90,30.47,30.31,6,2,10,0.00
2014-12-8,61.4,50.4,45.7,49.0,45.9,44.0,95,85,60,30.40,30.31,6,2,9,0.00
2014-12-9,63.0,49.2,37.3,51.0,43.7,36.0,97,83,59,30.41,30.27,6,2,8,0.01
2014-12-10,55.8,46.5,39.4,46.0,40.4,35.0,92,79,70,30.29,30.16,9,4,14,0.00
2014-12-11,57.3,49.4,45.1,51.0,45.6,42.0,96,87,79,30.24,30.16,10,4,13,0.00
2014-12-12,50.7,47.7,44.9,50.0,47.0,44.0,98,97,96,30.31,30.21,11,4,11,0.02
2014-12-13,66.4,57.0,49.9,59.0,54.4,49.0,98,91,74,30.23,30.04,16,6,18,0.01
2014-12-14,62.8,60.9,57.3,61.0,58.5,56.0,94,91,85,30.03,29.73,20,9,25,0.19
2014-12-15,60.3,52.1,44.3,56.0,35.9,28.0,84,55,40,30.20,29.76,15,5,23,0.00
2014-12-16,49.7,41.7,35.1,32.0,29.5,27.0,73,63,50,30.41,30.20,15,5,19,0.00
2014-12-17,38.8,37.6,36.8,37.0,34.5,31.0,96,89,73,30.34,30.14,12,4,18,0.73
2014-12-18,43.1,41.0,37.8,42.0,40.2,37.0,97,97,96,30.26,30.15,6,2,10,0.00
2014-12-19,44.1,42.6,41.5,42.0,40.7,39.0,96,93,89,30.27,30.20,9,3,11,0.00
2014-12-20,44.3,42.6,41.7,41.0,38.9,37.0,92,87,81,30.31,30.21,5,1,8,0.00
2014-12-21,49.2,46.7,43.4,47.0,44.3,42.0,95,91,84,30.20,29.71,17,7,22,0.00
2014-12-22,60.3,52.2,47.4,48.0,44.8,40.0,93,77,52,29.79,29.57,13,5,22,0.00
2014-12-23,50.3,46.6,40.8,41.0,33.4,30.0,77,61,46,29.97,29.73,17,7,23,0.00
2014-12-24,49.6,41.8,36.1,35.0,31.5,29.0,86,68,50,30.08,29.97,16,7,23,0.00
2014-12-25,59.5,47.6,34.8,38.0,30.4,28.0,78,54,32,30.01,29.89,26,11,33,0.00
2014-12-26,59.5,53.6,44.5,56.0,49.3,39.0,95,85,67,30.06,29.88,18,6,23,0.02
2014-12-27,43.8,35.0,31.0,40.0,30.4,24.0,90,83,73,30.39,30.06,18,7,27,0.09
2014-12-28,45.7,36.4,30.1,25.0,24.1,23.0,78,63,43,30.37,30.17,7,2,10,0.00
2014-12-29,49.3,38.9,31.7,35.0,30.6,24.0,86,73,56,30.34,30.11,13,5,16,0.00
2014-12-30,40.5,34.5,28.0,32.0,27.6,21.0,87,76,57,30.67,30.34,15,7,26,0.00
2014-12-31,28.7,26.4,22.8,21.0,18.0,17.0,81,71,63,30.71,30.50,15,6,20,0.00
2015-1-1,34.5,30.8,27.7,33.0,27.0,18.0,95,86,65,30.49,30.27,4,1,7,0.21
2015-1-2,39.3,36.1,33.3,38.0,35.1,32.0,96,95,95,30.32,30.02,11,3,11,0.39